SCP
0 0 0 0 0 0 0 0 0 0 0 0 0 1 1 1 1 1 0 0 0 0 0 0 0 0 0 0 0 0 0 0 0 0 0 0 0 0 0 0 0 0 0
0 0 0 0 0 0 0 0 0 0 0 0 0 0 1 1 1 0 0 0 1 1 0 0 0 0 0 0 0 0 0 0 0 0 0 0 0 0 0 0 0 0 0
0 0 0 0 0 0 0 0 0 0 0 0 0 0 0 0 0 0 0 0 0 0 1 1 1 1 0 0 0 0 0 0 0 0 0 0 0 0 0 0 0 0 0
0 0 0 0 0 0 0 0 0 0 0 0 0 0 0 0 0 1 1 0 0 0 0 0 1 1 1 1 0 0 0 0 0 0 0 0 0 0 0 0 0 0 0
0 0 0 0 0 0 0 0 0 0 0 0 0 0 0 0 0 0 0 0 0 0 0 0 0 0 1 1 1 1 1 0 0 0 0 0 0 0 0 0 0 0 0
0 0 0 0 0 0 0 0 0 0 0 0 0 0 0 0 0 0 0 0 0 0 0 0 0 0 0 1 1 1 1 1 1 0 0 0 0 0 0 0 0 0 0
0 0 0 0 0 0 0 0 0 0 0 0 0 0 0 0 0 0 0 0 0 0 0 0 0 0 0 0 0 1 1 1 1 0 0 0 0 0 0 0 0 0 0
0 0 0 0 0 0 0 0 0 0 0 0 0 0 0 0 0 0 0 0 0 0 0 0 0 0 0 0 0 1 1 1 1 0 0 0 0 0 0 0 0 0 0
0 0 0 0 0 0 0 0 0 0 0 0 0 0 0 0 0 0 0 0 0 0 0 0 0 0 0 0 0 0 1 0 0 0 0 0 0 0 0 0 0 0 0
0 0 0 0 0 0 0 0 0 0 0 0 0 0 0 0 0 0 0 0 0 0 0 0 0 0 0 0 0 0 0 0 0 0 0 0 0 0 0 0 0 0 0
0 0 0 0 0 0 0 0 0 0 0 0 0 0 0 0 0 0 0 0 0 0 0 0 0 0 0 0 0 0 0 0 0 0 0 0 0 0 0 0 0 0 0
0 0 0 0 0 0 0 0 0 0 0 0 0 0 0 0 0 0 0 0 0 0 0 0 0 0 0 0 0 0 0 0 0 0 0 0 0 0 0 0 0 0 0
0 0 0 0 0 0 0 0 0 0 0 0 0 0 0 0 0 0 0 0 0 0 0 0 0 0 0 0 0 0 0 0 0 0 0 0 0 0 0 0 0 0 0
0 0 0 0 0 0 0 0 0 0 0 0 0 0 0 0 0 0 0 0 0 0 0 0 0 0 0 0 0 0 0 0 0 0 0 0 0 0 0 0 0 0 0
0 0 0 0 0 0 0 0 0 0 0 0 0 0 0 0 0 0 0 0 0 0 0 0 0 0 0 0 0 0 0 0 0 0 0 0 0 0 0 0 0 0 0
0 0 0 0 0 0 0 0 0 0 0 0 0 0 0 0 0 0 0 0 0 0 0 0 0 0 0 0 0 0 0 0 0 0 0 0 0 0 0 0 0 0 0
0 0 0 0 0 0 0 0 0 0 0 0 0 0 0 0 0 0 0 0 0 0 0 0 0 0 0 0 0 0 0 0 0 0 0 0 0 0 0 0 0 0 0
0 0 0 0 0 0 0 0 0 0 0 0 0 0 0 0 0 0 0 0 0 0 0 0 0 0 0 0 0 0 0 0 0 0 0 0 0 0 0 0 0 0 0
0 0 0 0 0 0 0 0 0 0 0 0 0 0 0 0 0 0 0 0 0 0 -0 -0 -0 -0 0 0 0 0 0 0 0 0 0 0 0 0 0 0 0 0 0
0 0 0 0 0 0 0 0 0 0 0 0 0 0 0 0 0 0 0 0 -0 -0 -0 -0 -0 0 0 0 0 0 0 0 0 0 0 0 0 0 0 0 0 0 0
0 0 0 0 0 0 0 0 0 0 0 0 0 0 0 0 0 -0 -0 -0 -0 -0 0 0 0 0 0 0 0 0 0 0 0 0 0 0 0 0 0 0 0 0 0
0 0 0 0 0 0 0 0 0 0 0 0 0 0 0 0 -0 -0 -0 0 0 0 0 0 0 0 0 0 0 0 0 0 0 0 0 0 0 0 0 0 0 0 0
0 0 0 0 0 0 0 0 0 -0 0 0 0 0 0 0 0 0 0 0 0 0 0 0 0 0 0 0 0 0 0 0 0 0 0 0 0 0 0 0 0 0 0
0 0 0 0 0 0 0 0 0 -0 0 0 0 0 0 0 0 0 0 0 0 0 0 0 0 0 0 0 0 0 0 0 0 0 0 0 0 0 0 0 0 0 0
0 0 0 0 0 0 0 0 0 0 0 0 0 0 0 0 0 0 0 0 0 0 0 0 0 0 0 0 0 0 0 0 0 0 0 0 0 0 0 0 0 0 0
0 0 0 0 0 0 0 0 0 0 0 0 0 0 0 0 0 0 0 0 0 0 0 0 0 0 0 0 0 0 0 0 0 0 0 0 0 0 0 0 0 0 0
Wind_Speed_500mb
24 26 30 37 36 35 39 40 42 39 40 50 43 51 58 57 53 51 53 50 53 55 55 57 58 58 56 58 61 56 54 56 54 45 48 51 56 56 55 51 50 51 49
17 14 22 29 39 40 36 36 42 42 45 49 53 55 56 62 65 64 60 60 62 60 59 64 64 64 62 64 66 65 67 60 60 60 52 50 61 66 63 60 57 57 55
6 2 2 4 9 25 37 46 49 51 51 48 49 50 56 50 51 63 67 66 64 71 70 63 65 71 66 64 71 70 73 67 69 72 59 26 34 36 53 64 66 62 63
11 11 7 6 11 8 9 15 25 37 49 57 60 58 53 42 44 50 55 56 57 59 56 57 73 68 63 66 68 67 75 74 72 74 83 70 31 26 24 43 54 63 66
16 12 6 4 4 3 3 1 1 7 13 21 38 52 62 60 52 38 43 47 49 53 52 53 50 62 69 70 71 71 70 78 81 84 87 87 79 46 42 41 48 57 62
15 9 5 5 6 8 7 6 3 7 11 11 13 20 30 40 49 47 41 44 42 40 47 54 57 55 54 64 73 72 77 77 82 89 93 90 82 91 73 50 46 47 52
14 8 3 1 9 14 13 10 11 9 14 15 14 14 18 24 32 46 44 38 35 41 44 50 51 52 56 57 58 61 71 79 81 84 94 88 85 80 79 86 74 55 55
10 4 2 6 9 16 20 18 17 14 19 22 19 16 20 22 21 24 35 48 45 36 34 34 39 39 45 43 46 52 59 66 70 78 88 88 86 83 83 84 78 70 65
9 3 3 10 14 17 18 16 16 16 20 22 20 23 26 25 26 27 31 34 38 45 52 50 46 45 42 45 41 45 50 57 63 66 75 82 86 82 83 81 79 74 52
9 2 4 11 10 12 12 11 9 9 11 11 10 14 17 18 20 23 26 28 32 36 38 41 45 49 50 55 46 43 46 50 55 62 67 69 74 78 80 79 76 72 60
9 5 7 9 9 9 6 5 3 5 4 3 6 12 15 18 23 26 28 28 30 32 33 35 40 41 43 44 40 37 39 45 48 52 56 60 65 71 71 65 59 51 45
9 7 6 5 8 7 5 4 3 5 6 7 11 14 15 17 18 20 24 27 29 29 31 32 34 37 37 37 34 33 37 41 41 42 42 50 54 55 47 41 32 25 21
9 7 6 9 11 10 6 5 5 4 6 8 12 14 13 13 15 20 21 20 20 23 26 31 32 30 32 32 30 30 31 33 32 34 26 35 31 28 24 20 18 17 19
14 13 12 10 12 9 6 7 6 5 5 7 10 12 12 13 12 11 13 14 15 16 19 18 17 18 23 25 26 25 22 21 19 15 22 17 12 9 8 10 11 11 10
15 15 14 15 13 11 9 7 6 6 6 6 8 10 10 9 8 6 4 5 10 20 23 21 18 17 18 12 6 3 1 4 7 10 13 12 9 7 7 10 9 10 10
21 20 17 16 13 15 10 7 9 8 7 7 9 9 9 9 11 12 15 19 26 26 24 22 21 19 23 23 23 20 15 14 10 5 5 3 7 8 9 7 7 12 12
21 18 17 18 18 14 9 9 11 10 9 6 2 4 6 11 15 20 23 27 28 26 28 27 24 25 26 22 19 16 12 9 6 5 3 1 3 6 8 9 10 10 13
19 21 18 17 12 8 9 12 10 8 5 2 5 8 11 17 23 24 27 29 27 27 27 27 25 22 25 20 17 14 10 5 2 3 7 4 5 7 10 12 15 17 17
13 13 20 19 15 16 13 11 10 4 6 11 15 19 22 24 26 28 31 31 27 26 26 23 20 18 19 16 15 15 14 14 13 11 11 11 13 14 14 15 17 17 16
13 17 20 23 20 13 14 14 10 9 15 20 22 24 25 27 28 29 28 26 20 19 19 18 18 16 16 15 14 13 12 13 13 16 17 17 16 19 22 20 18 20 20
16 18 16 15 16 18 17 14 13 18 21 23 25 28 28 26 24 24 23 20 18 17 16 14 13 14 16 17 17 16 15 15 16 16 19 22 22 21 21 20 16 16 17
14 17 16 18 17 15 13 17 21 26 28 29 26 26 24 22 20 18 17 15 12 10 10 10 12 15 16 18 20 19 18 16 15 16 19 20 21 18 12 8 6 6 9
12 15 18 20 19 16 19 21 27 32 29 25 22 21 20 17 15 12 10 8 5 6 7 10 15 16 17 19 22 24 24 21 20 20 21 20 17 12 9 6 7 9 11
16 20 21 23 20 22 25 27 31 29 27 24 21 18 15 13 11 8 4 1 2 5 8 11 14 16 19 21 23 23 21 23 23 22 21 16 11 7 6 8 10 12 15
22 23 20 24 27 29 32 33 30 28 26 23 21 17 14 12 8 5 3 2 6 10 13 15 17 17 20 23 24 25 25 25 23 20 14 10 8 7 9 12 15 17 19
27 27 23 26 33 36 35 34 32 31 28 25 21 17 15 13 11 8 7 5 8 11 13 16 17 20 21 21 23 26 26 26 23 17 13 11 12 13 15 18 21 23 23
Wind_Direction_500mb
248 244 229 239 237 224 222 224 228 232 244 234 228 250 257 265 262 257 243 239 248 251 255 254 253 246 244 246 245 249 245 229 238 232 238 236 244 245 245 241 243 247 245
235 252 260 263 257 248 241 243 245 239 243 243 248 240 259 261 266 270 264 248 246 247 249 253 259 258 250 240 241 245 247 232 229 222 230 233 242 247 243 244 243 245 249
256 233 271 264 236 233 237 235 236 232 228 231 239 244 251 268 262 265 270 271 260 249 249 249 253 259 259 247 238 237 250 249 233 229 224 216 231 244 246 244 243 240 245
185 177 163 209 252 254 246 242 246 248 244 238 238 238 239 245 267 274 277 278 276 277 271 255 249 248 252 253 248 239 246 252 238 230 232 233 243 220 232 238 235 237 239
150 151 172 121 347 28 40 33 323 290 267 257 251 250 247 247 243 253 259 258 265 276 278 281 274 253 249 254 254 251 248 248 249 245 241 241 234 232 243 239 232 230 232
148 139 121 111 316 322 338 350 341 318 308 298 284 269 262 258 252 250 260 263 258 256 262 268 273 274 269 253 252 253 257 255 253 245 250 254 244 237 232 239 242 233 229
148 137 173 259 311 308 305 298 292 286 289 283 282 286 279 268 258 244 243 249 266 273 276 277 274 280 276 270 263 260 257 257 256 257 248 251 252 251 250 242 241 236 230
137 141 346 324 296 291 287 286 283 278 274 274 272 261 256 259 252 248 245 247 248 247 254 270 274 280 286 276 268 264 260 261 264 263 259 256 256 258 254 251 247 241 238
155 164 306 279 281 289 298 298 286 272 272 282 279 274 274 273 272 266 262 259 255 253 251 250 254 261 272 282 278 271 270 267 267 265 261 261 260 258 257 254 251 247 239
162 195 279 289 307 311 317 306 305 294 289 294 291 286 280 276 273 269 266 264 264 263 265 266 266 267 264 266 271 266 266 269 267 265 262 264 260 258 257 254 253 251 244
188 236 254 290 309 316 327 322 332 311 321 312 276 276 280 277 277 278 277 278 275 272 273 273 273 277 283 285 283 280 275 269 266 267 269 265 262 256 254 256 258 252 246
217 235 263 263 275 288 288 298 302 316 327 314 299 301 303 298 299 295 289 279 279 283 286 291 295 294 295 293 291 282 276 270 265 262 267 267 261 260 260 256 253 261 243
216 221 223 247 244 248 255 281 304 328 331 323 331 332 324 315 321 318 311 309 302 297 299 297 301 307 309 301 287 279 271 263 255 253 276 268 261 250 244 248 237 235 246
200 201 214 213 244 257 257 280 299 316 334 347 345 347 343 329 337 351 354 350 329 321 319 315 315 319 311 301 294 290 282 271 255 241 246 227 213 215 230 242 250 240 263
208 217 203 194 218 235 249 264 289 297 304 319 328 332 340 352 357 16 34 12 20 24 23 16 13 6 347 341 328 344 60 103 137 147 154 162 174 202 226 236 250 262 255
226 228 219 208 216 233 242 251 272 275 282 294 324 345 1 45 61 71 74 67 60 51 47 46 47 50 55 59 76 85 86 93 89 98 130 170 196 211 219 250 257 269 270
217 209 205 202 219 236 237 255 265 274 272 285 328 45 67 81 88 88 82 77 74 75 74 69 67 69 72 64 63 61 68 75 88 114 117 233 283 284 299 300 277 278 279
214 204 202 220 224 228 233 252 263 260 259 171 118 111 106 101 99 98 89 84 82 79 75 71 68 67 74 63 54 46 47 42 19 353 2 348 327 320 292 289 294 300 297
208 196 194 213 205 214 226 248 260 214 162 134 123 120 113 109 106 102 96 91 86 84 80 76 73 64 68 67 53 40 32 28 20 9 352 332 318 320 300 295 295 298 291
214 224 222 209 213 209 212 231 228 179 153 142 135 128 121 115 111 103 99 94 89 85 80 83 74 63 47 34 21 13 4 356 349 334 326 318 310 301 304 305 290 287 292
194 204 218 205 212 214 222 222 184 163 149 145 139 128 122 116 111 107 102 95 87 76 66 52 36 16 10 6 7 359 351 340 328 321 317 317 324 321 313 306 298 286 293
206 204 203 202 216 220 201 175 164 155 144 141 138 134 128 121 118 115 108 93 76 57 37 23 12 360 359 353 351 351 348 349 335 328 327 326 325 326 323 320 321 309 314
205 201 212 210 208 200 181 173 161 149 148 146 146 144 138 135 129 124 115 101 65 19 359 346 344 348 346 350 352 359 354 351 344 341 336 333 335 339 341 354 341 328 316
218 214 211 203 200 185 172 165 160 154 154 159 163 161 157 152 151 151 159 186 331 330 331 335 336 341 344 343 337 334 330 328 331 331 329 331 338 347 345 331 322 315 311
219 216 207 204 195 183 174 173 173 171 172 177 180 179 178 182 188 203 238 301 323 328 332 333 329 325 327 332 333 333 333 332 331 330 327 321 321 314 309 309 309 306 308
220 213 213 207 196 189 185 185 184 187 189 189 193 195 200 207 213 232 262 292 304 316 323 322 326 329 329 332 330 327 331 331 329 330 324 321 319 315 310 308 306 304 305
Wind_Speed_850mb
24 26 30 37 36 35 39 40 42 39 40 50 43 51 58 57 53 51 53 50 53 55 55 57 58 58 56 58 61 56 54 56 54 45 48 51 56 56 55 51 50 51 49
17 14 22 29 39 40 36 36 42 42 45 49 53 55 56 62 65 64 60 60 62 60 59 64 64 64 62 64 66 65 67 60 60 60 52 50 61 66 63 60 57 57 55
6 2 2 4 9 25 37 46 49 51 51 48 49 50 56 50 51 63 67 66 64 71 70 63 65 71 66 64 71 70 73 67 69 72 59 26 34 36 53 64 66 62 63
11 11 7 6 11 8 9 15 25 37 49 57 60 58 53 42 44 50 55 56 57 59 56 57 73 68 63 66 68 67 75 74 72 74 83 70 31 26 24 43 54 63 66
16 12 6 4 4 3 3 1 1 7 13 21 38 52 62 60 52 38 43 47 49 53 52 53 50 62 69 70 71 71 70 78 81 84 87 87 79 46 42 41 48 57 62
15 9 5 5 6 8 7 6 3 7 11 11 13 20 30 40 49 47 41 44 42 40 47 54 57 55 54 64 73 72 77 77 82 89 93 90 82 91 73 50 46 47 52
14 8 3 1 9 14 13 10 11 9 14 15 14 14 18 24 32 46 44 38 35 41 44 50 51 52 56 57 58 61 71 79 81 84 94 88 85 80 79 86 74 55 55
10 4 2 6 9 16 20 18 17 14 19 22 19 16 20 22 21 24 35 48 45 36 34 34 39 39 45 43 46 52 59 66 70 78 88 88 86 83 83 84 78 70 65
9 3 3 10 14 17 18 16 16 16 20 22 20 23 26 25 26 27 31 34 38 45 52 50 46 45 42 45 41 45 50 57 63 66 75 82 86 82 83 81 79 74 52
9 2 4 11 10 12 12 11 9 9 11 11 10 14 17 18 20 23 26 28 32 36 38 41 45 49 50 55 46 43 46 50 55 62 67 69 74 78 80 79 76 72 60
9 5 7 9 9 9 6 5 3 5 4 3 6 12 15 18 23 26 28 28 30 32 33 35 40 41 43 44 40 37 39 45 48 52 56 60 65 71 71 65 59 51 45
9 7 6 5 8 7 5 4 3 5 6 7 11 14 15 17 18 20 24 27 29 29 31 32 34 37 37 37 34 33 37 41 41 42 42 50 54 55 47 41 32 25 21
9 7 6 9 11 10 6 5 5 4 6 8 12 14 13 13 15 20 21 20 20 23 26 31 32 30 32 32 30 30 31 33 32 34 26 35 31 28 24 20 18 17 19
14 13 12 10 12 9 6 7 6 5 5 7 10 12 12 13 12 11 13 14 15 16 19 18 17 18 23 25 26 25 22 21 19 15 22 17 12 9 8 10 11 11 10
15 15 14 15 13 11 9 7 6 6 6 6 8 10 10 9 8 6 4 5 10 20 23 21 18 17 18 12 6 3 1 4 7 10 13 12 9 7 7 10 9 10 10
21 20 17 16 13 15 10 7 9 8 7 7 9 9 9 9 11 12 15 19 26 26 24 22 21 19 23 23 23 20 15 14 10 5 5 3 7 8 9 7 7 12 12
21 18 17 18 18 14 9 9 11 10 9 6 2 4 6 11 15 20 23 27 28 26 28 27 24 25 26 22 19 16 12 9 6 5 3 1 3 6 8 9 10 10 13
19 21 18 17 12 8 9 12 10 8 5 2 5 8 11 17 23 24 27 29 27 27 27 27 25 22 25 20 17 14 10 5 2 3 7 4 5 7 10 12 15 17 17
13 13 20 19 15 16 13 11 10 4 6 11 15 19 22 24 26 28 31 31 27 26 26 23 20 18 19 16 15 15 14 14 13 11 11 11 13 14 14 15 17 17 16
13 17 20 23 20 13 14 14 10 9 15 20 22 24 25 27 28 29 28 26 20 19 19 18 18 16 16 15 14 13 12 13 13 16 17 17 16 19 22 20 18 20 20
16 18 16 15 16 18 17 14 13 18 21 23 25 28 28 26 24 24 23 20 18 17 16 14 13 14 16 17 17 16 15 15 16 16 19 22 22 21 21 20 16 16 17
14 17 16 18 17 15 13 17 21 26 28 29 26 26 24 22 20 18 17 15 12 10 10 10 12 15 16 18 20 19 18 16 15 16 19 20 21 18 12 8 6 6 9
12 15 18 20 19 16 19 21 27 32 29 25 22 21 20 17 15 12 10 8 5 6 7 10 15 16 17 19 22 24 24 21 20 20 21 20 17 12 9 6 7 9 11
16 20 21 23 20 22 25 27 31 29 27 24 21 18 15 13 11 8 4 1 2 5 8 11 14 16 19 21 23 23 21 23 23 22 21 16 11 7 6 8 10 12 15
22 23 20 24 27 29 32 33 30 28 26 23 21 17 14 12 8 5 3 2 6 10 13 15 17 17 20 23 24 25 25 25 23 20 14 10 8 7 9 12 15 17 19
27 27 23 26 33 36 35 34 32 31 28 25 21 17 15 13 11 8 7 5 8 11 13 16 17 20 21 21 23 26 26 26 23 17 13 11 12 13 15 18 21 23 23
Wind_Direction_850mb
248 244 229 239 237 224 222 224 228 232 244 234 228 250 257 265 262 257 243 239 248 251 255 254 253 246 244 246 245 249 245 229 238 232 238 236 244 245 245 241 243 247 245
235 252 260 263 257 248 241 243 245 239 243 243 248 240 259 261 266 270 264 248 246 247 249 253 259 258 250 240 241 245 247 232 229 222 230 233 242 247 243 244 243 245 249
256 233 271 264 236 233 237 235 236 232 228 231 239 244 251 268 262 265 270 271 260 249 249 249 253 259 259 247 238 237 250 249 233 229 224 216 231 244 246 244 243 240 245
185 177 163 209 252 254 246 242 246 248 244 238 238 238 239 245 267 274 277 278 276 277 271 255 249 248 252 253 248 239 246 252 238 230 232 233 243 220 232 238 235 237 239
150 151 172 121 347 28 40 33 323 290 267 257 251 250 247 247 243 253 259 258 265 276 278 281 274 253 249 254 254 251 248 248 249 245 241 241 234 232 243 239 232 230 232
148 139 121 111 316 322 338 350 341 318 308 298 284 269 262 258 252 250 260 263 258 256 262 268 273 274 269 253 252 253 257 255 253 245 250 254 244 237 232 239 242 233 229
148 137 173 259 311 308 305 298 292 286 289 283 282 286 279 268 258 244 243 249 266 273 276 277 274 280 276 270 263 260 257 257 256 257 248 251 252 251 250 242 241 236 230
137 141 346 324 296 291 287 286 283 278 274 274 272 261 256 259 252 248 245 247 248 247 254 270 274 280 286 276 268 264 260 261 264 263 259 256 256 258 254 251 247 241 238
155 164 306 279 281 289 298 298 286 272 272 282 279 274 274 273 272 266 262 259 255 253 251 250 254 261 272 282 278 271 270 267 267 265 261 261 260 258 257 254 251 247 239
162 195 279 289 307 311 317 306 305 294 289 294 291 286 280 276 273 269 266 264 264 263 265 266 266 267 264 266 271 266 266 269 267 265 262 264 260 258 257 254 253 251 244
188 236 254 290 309 316 327 322 332 311 321 312 276 276 280 277 277 278 277 278 275 272 273 273 273 277 283 285 283 280 275 269 266 267 269 265 262 256 254 256 258 252 246
217 235 263 263 275 288 288 298 302 316 327 314 299 301 303 298 299 295 289 279 279 283 286 291 295 294 295 293 291 282 276 270 265 262 267 267 261 260 260 256 253 261 243
216 221 223 247 244 248 255 281 304 328 331 323 331 332 324 315 321 318 311 309 302 297 299 297 301 307 309 301 287 279 271 263 255 253 276 268 261 250 244 248 237 235 246
200 201 214 213 244 257 257 280 299 316 334 347 345 347 343 329 337 351 354 350 329 321 319 315 315 319 311 301 294 290 282 271 255 241 246 227 213 215 230 242 250 240 263
208 217 203 194 218 235 249 264 289 297 304 319 328 332 340 352 357 16 34 12 20 24 23 16 13 6 347 341 328 344 60 103 137 147 154 162 174 202 226 236 250 262 255
226 228 219 208 216 233 242 251 272 275 282 294 324 345 1 45 61 71 74 67 60 51 47 46 47 50 55 59 76 85 86 93 89 98 130 170 196 211 219 250 257 269 270
217 209 205 202 219 236 237 255 265 274 272 285 328 45 67 81 88 88 82 77 74 75 74 69 67 69 72 64 63 61 68 75 88 114 117 233 283 284 299 300 277 278 279
214 204 202 220 224 228 233 252 263 260 259 171 118 111 106 101 99 98 89 84 82 79 75 71 68 67 74 63 54 46 47 42 19 353 2 348 327 320 292 289 294 300 297
208 196 194 213 205 214 226 248 260 214 162 134 123 120 113 109 106 102 96 91 86 84 80 76 73 64 68 67 53 40 32 28 20 9 352 332 318 320 300 295 295 298 291
214 224 222 209 213 209 212 231 228 179 153 142 135 128 121 115 111 103 99 94 89 85 80 83 74 63 47 34 21 13 4 356 349 334 326 318 310 301 304 305 290 287 292
194 204 218 205 212 214 222 222 184 163 149 145 139 128 122 116 111 107 102 95 87 76 66 52 36 16 10 6 7 359 351 340 328 321 317 317 324 321 313 306 298 286 293
206 204 203 202 216 220 201 175 164 155 144 141 138 134 128 121 118 115 108 93 76 57 37 23 12 360 359 353 351 351 348 349 335 328 327 326 325 326 323 320 321 309 314
205 201 212 210 208 200 181 173 161 149 148 146 146 144 138 135 129 124 115 101 65 19 359 346 344 348 346 350 352 359 354 351 344 341 336 333 335 339 341 354 341 328 316
218 214 211 203 200 185 172 165 160 154 154 159 163 161 157 152 151 151 159 186 331 330 331 335 336 341 344 343 337 334 330 328 331 331 329 331 338 347 345 331 322 315 311
219 216 207 204 195 183 174 173 173 171 172 177 180 179 178 182 188 203 238 301 323 328 332 333 329 325 327 332 333 333 333 332 331 330 327 321 321 314 309 309 309 306 308
220 213 213 207 196 189 185 185 184 187 189 189 193 195 200 207 213 232 262 292 304 316 323 322 326 329 329 332 330 327 331 331 329 330 324 321 319 315 310 308 306 304 305